{"data":{"norad_id":59005,"epoch":"2026-09-20T22:48:23.866272Z","epoch_age_seconds":116546,"freshness":"FRESH","line1":"1 59005U 24036H   26263.95027623 -.00001621  00000+0 -36853-4 0  9997","line2":"2 59005  53.1606 249.3800 0001615 110.2432 249.8744 15.34391768145245","mean_motion":15.34391768,"eccentricity":0.0001615,"inclination_deg":53.1606,"raan_deg":249.38,"arg_perigee_deg":110.2432,"mean_anomaly_deg":249.8744,"bstar":-3.6853e-5,"rev_number":14524,"period_min":93.848261573833,"perigee_km":461.62290790504,"apogee_km":463.83250720558,"semimajor_km":6840.8647075553,"source":"CELESTRAK","updated_at":"2026-09-21T09:00:34.024255Z"}}